Showing default

COSMOS 2386, 27057

Orbit data source: Space-Track

COSMOS 2386, 27057 is a payload satellite owned by KVR (CIS) in LEO that was launched on Fri, 28 Dec 2001 UTC via a TSIKLON-3 launch vehicle from the Plesetsk Missile And Space Complex (PKMTR). Payload-class satellites include a variety of spacecraft equipped with specific instruments for various scientific and technological missions. These include communications satellites like Starlink; space stations such as the ISS; scientific satellites like the Hubble; Earth observation satellites from companies like Planet Labs, Umbra, and HawkEye 360; GPS; miniature CubeSats for education and research; and military/defense satellites.

Loading next visibility...
Identifier
27057, 2001-058C
Orbit
LEO
Country
Flag of CISCIS
Related business
Manufacturer
NPO PM
Mission
Operational Defense Communications
Bus & Motor
STRELA-3, Unknown motor
Mass
225 kg wet, 225 kg dry
Launch date (UTC)
2001-12-28 (24 years ago)
Launch vehicle
TSIKLON-3
Launch site
Plesetsk Missile And Space Complex (PKMTR)
Object type
Payload
Rocket body
Debris
Shape & HBR
Cyl + 1 Arm, 3.5 m
Radar Cross Section
1.257 m², Medium (>0.1 m² and < 1m²)

Expand to show TLE details & history
Last TLE update: 10 hours ago

TLE from 10 hours ago
0 COSMOS 2386
1 27057U 01058C   25310.16969251  .00000046  00000-0  19968-3 0  9991
2 27057  82.5471 356.9574 0001157 116.1414 243.9796 12.61610279 98384
Epoch: 2025-11-06T04:04Z
TLE epoch observation values (Epoch: 2025-11-06T04:04:21.432Z)
Latitude
-0.00001°
Longitude
-109.76376°
Altitude
1,419.429 km
Speed
7.151 km/s
True Right ascension
23h 47m 49s
True Declination
0° 00' 00"
Sunlit
Object was in full shadow at epoch
Visualization orbit readout
Latitude
Unknown
Longitude
Unknown
Altitude
Unknown
Speed
Unknown
Apparent Right ascension
Unknown
Apparent Declination
Unknown
Sunlit
N/A
Visualization observer readout
Local Sidereal Time
10:34:04
Azimuth
Unknown
Elevation
Unknown
Doppler factor
Unknown
Orbital elements
Apogee altitude
1,414.529 km
Perigee altitude
1,412.726 km
Semi-major axis
7,791.765 km
Eccentricity
0.00012
Inclination
82.5471°
RAAN
356.9574°
Arg. of periapsis
116.1414°
True anomaly
243.96769°
Mean anomaly
243.9796°
Eccentric anomaly
243.97364°
Mean motion
3.15565 °/min
Orbital period
114.08 mins
BSTAR
0.00019968
Loading maneuver chart data...
Computing Atmospheric mass density...
Loading historical data...
Loading historical data...
Loading historical data...
Loading historical data...
Loading historical data...
Loading historical data...
Loading historical data...

Documentation

Showing up to 5 results
|